Location: ???? ??????? ????
(31.2176°N, 31.6797°E)
Time: 11:19:34
(UTC+00:00)

PSLV R/B - Pass Details

Date: 29 October 2020
Orbit: 567 x 599 km, 98.2° (Epoch: 27 November)

Event Time Altitude Azimuth Distance (km) Brightness Sun altitude
Rises 16:01:39 0° 11° (N) 2,820 7.2 -12.3°
Reaches altitude 10° 16:03:50 10° 11° (N) 1,911 6.4 -12.7°
Maximum altitude 16:07:58 85° 284° (WNW) 588 3.9 -13.6°
Drops below altitude 10° 16:12:03 10° 195° (SSW) 1,879 6.8 -14.5°
Sets 16:14:10 0° 195° (SSW) 2,769 7.7 -14.9°
